[[{"header":{"parameterUnit":"m.s-1","parameterCategory":1,"la1":30.2991,"la2":30.254,"lo1":-89.0895,"lo2":-89.0444,"dy":0.0017,"dx":0.0017,"nx":28,"ny":28,"refTime":"2024-05-03T21:00:00:Z","depth":0,"parameterNumber":2,"parameterNumberName":"U-component_of_WINDS"},"data":[0,0,0,0,0,0,0,0,0,0,0,0,0,0,0,0,0,0,0,0,0,0,0,0,0,0,0,0,0,0,0,0,0,0,0,0,0,0,0,0,0,0,0,0,0,0,0,0,0,0,0,0,0,0,0,0,0,0,-1.7654,-1.7654,0,-1.7648,-1.7648,-1.7648,-1.7606,-1.7605,-1.7604,-1.7603,-1.7599,-1.76,-1.7601,0,0,0,0,0,0,0,0,0,0,0,0,0,-1.7632,-1.7632,-1.7654,-1.7654,-1.7654,-1.7648,-1.7648,-1.7648,-1.7606,-1.7605,-1.7603,-1.7602,-1.7599,-1.76,-1.7601,0,0,0,0,0,0,0,0,0,0,0,0,0,-1.7635,-1.7633,-1.7654,-1.7632,-1.763,-1.7648,-1.7648,-1.7648,-1.7606,-1.7605,-1.7603,-1.7602,-1.7598,-1.76,-1.7601,-1.764,0,0,-1.7605,-1.7606,0,0,0,0,0,0,0,0,-1.7635,-1.7636,-1.7636,-1.7634,-1.7632,-1.7626,-1.7639,-1.7646,-1.7607,-1.7615,-1.7603,-1.7601,-1.7609,-1.761,-1.7612,-1.764,-1.764,-1.7605,-1.7606,-1.7606,-1.7607,0,0,0,0,0,0,0,-1.7635,-1.7636,-1.7652,-1.7636,-1.7633,-1.7624,-1.7622,-1.764,-1.7621,-1.7615,-1.7611,-1.7611,-1.7608,-1.7611,-1.7612,-1.764,-1.7605,-1.7606,-1.7607,-1.7608,-1.7701,-1.7703,0,0,0,0,0,0,-1.7638,-1.7636,-1.7652,-1.7652,-1.763,-1.7625,-1.7624,-1.763,-1.7621,-1.7618,-1.7613,-1.7609,-1.761,-1.761,-1.7611,-1.7657,-1.7606,-1.7608,-1.7608,-1.77,-1.7702,-1.7703,0,0,0,0,0,0,-1.7637,-1.7639,-1.7652,-1.7643,-1.7644,-1.7627,-1.7634,-1.763,-1.7633,-1.7619,-1.7616,-1.7619,-1.7608,-1.761,-1.7634,-1.7657,-1.7608,-1.7609,-1.7698,-1.77,-1.7702,-1.775,0,0,0,0,0,0,-1.7637,-1.7639,-1.7654,-1.7644,-1.7645,-1.7674,-1.7635,-1.7631,-1.7635,-1.7631,-1.7624,-1.7622,-1.7607,-1.7632,-1.7635,-1.7658,-1.761,-1.7695,-1.7699,-1.7702,-1.7746,-1.7754,-1.776,0,0,0,0,0,-1.7636,-1.7668,-1.7655,-1.7657,-1.7662,-1.7675,-1.7676,-1.7658,-1.7637,-1.7652,-1.7643,-1.7622,-1.7654,-1.7635,-1.7638,-1.7661,-1.7694,-1.7698,-1.7701,-1.7743,-1.7752,-1.776,0,0,0,0,0,0,-1.7681,-1.7666,-1.7651,-1.768,-1.7679,-1.7668,-1.7686,-1.7668,-1.7673,-1.7669,-1.7647,-1.7646,-1.7673,-1.767,-1.7649,-1.77,-1.767,-1.7675,-1.7701,-1.7709,-1.7716,-1.7717,-1.7612,0,0,0,0,0,-1.7694,-1.7706,-1.7692,-1.7719,-1.7719,-1.7703,-1.7708,-1.7694,-1.7692,-1.7692,-1.7685,-1.7685,-1.7695,-1.7702,-1.771,-1.7745,-1.7744,-1.7763,-1.777,-1.7776,-1.7781,-1.7799,-1.7808,-1.7716,-1.7716,-1.7716,0,0,-1.7722,-1.7715,-1.7724,-1.7728,-1.7726,-1.7739,-1.7703,-1.7718,-1.7728,-1.7694,-1.7716,-1.7712,-1.771,-1.774,-1.7753,-1.7738,-1.7806,-1.7781,-1.7786,-1.7787,-1.7804,-1.7813,-1.7821,-1.7719,-1.7718,-1.7718,0,0,-1.7779,-1.7775,-1.7797,-1.7795,-1.7792,-1.7781,-1.7786,-1.7778,-1.7773,-1.7795,-1.777,-1.7782,-1.7799,-1.7799,-1.7802,-1.786,-1.7841,-1.7863,-1.79,-1.7919,-1.7926,-1.7932,-1.7953,-1.7961,-1.7868,-1.7868,-1.7868,0,-1.7814,-1.7832,-1.7811,-1.7828,-1.7831,-1.7801,-1.7823,-1.7823,-1.7823,-1.7826,-1.7809,-1.7831,-1.7828,-1.7858,-1.7872,-1.7875,-1.7881,-1.7864,-1.7926,-1.7933,-1.7938,-1.7958,-1.7966,-1.787,-1.787,-1.787,-1.787,0,-1.7875,-1.7888,-1.7907,-1.7906,-1.7912,-1.7932,-1.7914,-1.7922,-1.7908,-1.7899,-1.7922,-1.7918,-1.7925,-1.7931,-1.7917,-1.7959,-1.795,-1.793,-1.79,-1.795,-1.7968,-1.7976,-1.7874,-1.7873,-1.7873,-1.7872,0,0,-1.796,-1.7948,-1.7956,-1.7955,-1.795,-1.796,-1.7979,-1.7985,-1.7992,-1.7994,-1.801,-1.8025,-1.8007,-1.801,-1.7996,-1.8013,-1.806,-1.7991,-1.7991,-1.8004,-1.8106,-1.8121,-1.813,-1.8047,-1.8048,-1.805,-1.8106,0,-1.8015,-1.8046,-1.8028,-1.8061,-1.8073,-1.8046,-1.8062,-1.8061,-1.8054,-1.8063,-1.8055,-1.8067,-1.8042,-1.8043,-1.8058,-1.8051,-1.808,-1.8046,-1.8062,-1.8063,-1.8064,-1.8139,-1.8155,-1.8209,-1.8113,-1.8114,-1.8115,0,-1.8083,-1.8086,-1.8121,-1.8114,-1.8118,-1.8133,-1.8138,-1.8147,-1.8146,-1.8139,-1.8143,-1.8125,-1.8145,-1.8115,-1.8142,-1.8119,-1.8125,-1.8122,-1.8124,-1.8125,-1.8092,-1.8143,-1.8225,-1.8234,-1.8126,-1.8125,-1.8125,0,-1.8142,-1.8155,-1.8178,-1.8179,-1.817,-1.8182,-1.8179,-1.8176,-1.8181,-1.8186,-1.8189,-1.8196,-1.82,-1.8206,-1.8192,-1.8171,-1.8221,-1.819,-1.8216,-1.8217,-1.8228,-1.8227,-1.8313,-1.8231,-1.8231,-1.8231,-1.8231,0,-1.8205,-1.8228,-1.8204,-1.8218,-1.8243,-1.8223,-1.8248,-1.8242,-1.824,-1.8253,-1.823,-1.8243,-1.8223,-1.8234,-1.8223,-1.8247,-1.8249,-1.8245,-1.8242,-1.8247,-1.8248,-1.825,-1.8247,-1.8233,-1.8233,-1.8232,-1.8232,0,-1.8275,-1.826,-1.8283,-1.8273,-1.8271,-1.829,-1.8282,-1.8295,-1.8286,-1.8303,-1.8306,-1.8292,-1.8304,-1.829,-1.8302,-1.8294,-1.8327,-1.8318,-1.8327,-1.8325,-1.8352,-1.835,-1.8443,-1.8454,-1.8365,-1.8366,-1.8367,0,-1.8316,-1.8333,-1.8325,-1.8331,-1.833,-1.8341,-1.8346,-1.8327,-1.8334,-1.8334,-1.8347,-1.8357,-1.8364,-1.8385,-1.8377,-1.8385,-1.8377,-1.8409,-1.8378,-1.8383,-1.8378,-1.8377,-1.8379,-1.8415,-1.8416,-1.8417,-1.8418,0,-1.8392,-1.8383,-1.8391,-1.8396,-1.8403,-1.8406,-1.8408,-1.8415,-1.8396,-1.8404,-1.8416,-1.8421,-1.8433,-1.8444,-1.845,-1.8448,-1.843,-1.8428,-1.8434,-1.844,-1.8445,-1.8443,-1.8344,-1.8426,-1.8425,-1.8424,-1.8424,-1.8423,-1.8449,-1.8462,-1.8459,-1.8468,-1.8467,-1.847,-1.8482,-1.8474,-1.8483,-1.849,-1.8479,-1.8494,-1.8493,-1.85,-1.85,-1.8512,-1.8499,-1.8508,-1.8511,-1.8513,-1.8518,-1.8443,-1.8513,-1.8513,-1.8513,-1.8513,-1.8512,0,-1.8523,-1.8519,-1.8528,-1.8531,-1.8539,-1.8521,-1.8522,-1.853,-1.8543,-1.8543,-1.8551,-1.8565,-1.8575,-1.8567,-1.8576,-1.8588,-1.858,-1.8591,-1.859,-1.859,-1.8529,-1.8522,-1.8597,-1.8597,-1.8597,-1.8597,-1.8597,-1.8597,-1.8563,-1.8585,-1.8576,-1.8598,-1.8595,-1.8609,-1.8611,-1.8613,-1.8613,-1.863,-1.8638,-1.8633,-1.863,-1.8639,-1.8648,-1.8645,-1.865,-1.8664,-1.8659,-1.8602,-1.8594,-1.8586,-1.858,-1.8665,-1.8665,-1.8719,-1.8719,-1.872]},{"header":{"parameterUnit":"m.s-1","parameterCategory":1,"la1":30.2991,"la2":30.254,"lo1":-89.0895,"lo2":-89.0444,"dy":0.0017,"dx":0.0017,"nx":28,"ny":28,"refTime":"2024-05-03T21:00:00:Z","depth":0,"parameterNumber":3,"parameterNumberName":"V-component_of_WINDS"},"data":[0,0,0,0,0,0,0,0,0,0,0,0,0,0,0,0,0,0,0,0,0,0,0,0,0,0,0,0,0,0,0,0,0,0,0,0,0,0,0,0,0,0,0,0,0,0,0,0,0,0,0,0,0,0,0,0,0,0,2.2006,2.2006,0,2.2009,2.2009,2.2009,2.1988,2.1987,2.1987,2.1986,2.1988,2.1989,2.1989,0,0,0,0,0,0,0,0,0,0,0,0,0,2.1984,2.1985,2.2006,2.2006,2.2006,2.2009,2.2009,2.2009,2.1988,2.1987,2.1987,2.1986,2.1988,2.1989,2.1989,0,0,0,0,0,0,0,0,0,0,0,0,0,2.1991,2.1985,2.2006,2.1996,2.1995,2.2009,2.2009,2.2009,2.1988,2.1987,2.1987,2.1986,2.1988,2.1988,2.1989,2.2012,0,0,2.1992,2.1992,0,0,0,0,0,0,0,0,2.199,2.1992,2.1998,2.1997,2.1996,2.1997,2.2001,2.201,2.1988,2.1991,2.1986,2.1985,2.1992,2.1992,2.1994,2.2012,2.2012,2.1992,2.1993,2.1993,2.1993,0,0,0,0,0,0,0,2.199,2.1991,2.2007,2.1998,2.1997,2.1992,2.1992,2.2003,2.1996,2.1991,2.1989,2.199,2.1991,2.1994,2.1994,2.2012,2.1992,2.1993,2.1993,2.1994,2.2049,2.205,0,0,0,0,0,0,2.1991,2.1991,2.2007,2.2007,2.1991,2.1993,2.1993,2.1998,2.1996,2.1995,2.1991,2.1989,2.1993,2.1993,2.1994,2.2021,2.1993,2.1994,2.1994,2.2048,2.2049,2.205,0,0,0,0,0,0,2.1991,2.1993,2.2007,2.1999,2.2,2.1994,2.2,2.1998,2.2001,2.1996,2.1994,2.1994,2.1992,2.1993,2.2008,2.2021,2.1994,2.1995,2.2047,2.2048,2.2049,2.2074,0,0,0,0,0,0,2.199,2.1993,2.2001,2.1999,2.2001,2.202,2.2,2.1999,2.2002,2.2,2.1999,2.1998,2.1991,2.2007,2.2009,2.2021,2.1996,2.2046,2.2047,2.2049,2.2072,2.2076,2.208,0,0,0,0,0,2.1989,2.2007,2.2001,2.2003,2.2011,2.2021,2.2022,2.2014,2.2003,2.2012,2.2009,2.1998,2.2019,2.2008,2.201,2.2024,2.2045,2.2047,2.2049,2.207,2.2075,2.208,0,0,0,0,0,0,2.201,2.2007,2.2,2.2018,2.202,2.2018,2.2028,2.202,2.2024,2.2022,2.2012,2.2012,2.2028,2.2027,2.2016,2.2046,2.203,2.2033,2.2046,2.205,2.2054,2.2054,2.1996,0,0,0,0,0,2.2017,2.2026,2.2022,2.2038,2.204,2.2034,2.2038,2.2032,2.2033,2.2034,2.2032,2.2034,2.2041,2.2045,2.2052,2.2072,2.2072,2.2082,2.2086,2.2089,2.2091,2.2103,2.2108,2.2057,2.2057,2.2057,0,0,2.2031,2.203,2.2036,2.2043,2.2043,2.2053,2.2035,2.2045,2.2052,2.2035,2.2049,2.2048,2.2049,2.2067,2.2075,2.2067,2.2106,2.2092,2.2094,2.2095,2.2105,2.211,2.2115,2.2058,2.2058,2.2058,0,0,2.2061,2.2061,2.2075,2.2077,2.2078,2.2074,2.2078,2.2077,2.2076,2.2089,2.2078,2.2086,2.2098,2.21,2.2102,2.2134,2.2125,2.2136,2.2156,2.2167,2.2171,2.2175,2.2186,2.2191,2.2139,2.2139,2.2139,0,2.2078,2.2091,2.2083,2.2095,2.2098,2.2085,2.2099,2.21,2.2104,2.2107,2.2098,2.2114,2.2113,2.2132,2.214,2.2142,2.2146,2.2136,2.2171,2.2175,2.2178,2.2189,2.2193,2.214,2.214,2.214,2.214,0,2.2112,2.2122,2.2133,2.2137,2.2142,2.2155,2.2149,2.2155,2.2149,2.2146,2.2161,2.216,2.2166,2.217,2.2164,2.2188,2.2183,2.2173,2.2157,2.2184,2.2195,2.2199,2.2142,2.2142,2.2141,2.2141,0,0,2.2154,2.2155,2.2159,2.2162,2.2163,2.217,2.2183,2.2189,2.2195,2.2198,2.2208,2.2219,2.221,2.2213,2.2207,2.2217,2.2243,2.2206,2.2206,2.2213,2.227,2.2278,2.2283,2.2237,2.2238,2.2238,2.227,0,2.2184,2.2205,2.2199,2.222,2.223,2.2218,2.2228,2.2231,2.2229,2.2236,2.2234,2.2242,2.2229,2.2231,2.224,2.2238,2.2254,2.2236,2.2247,2.2247,2.2246,2.2288,2.2296,2.2325,2.2274,2.2275,2.2275,0,2.222,2.2226,2.2249,2.225,2.2253,2.2263,2.2269,2.2276,2.2279,2.2277,2.2281,2.2273,2.2286,2.227,2.2287,2.2275,2.2279,2.2278,2.2279,2.228,2.2262,2.2289,2.2335,2.2339,2.2281,2.2281,2.228,0,2.2249,2.2262,2.2278,2.228,2.2282,2.2289,2.229,2.2292,2.2296,2.2301,2.2304,2.2311,2.2314,2.232,2.2314,2.2303,2.2332,2.2316,2.2331,2.2331,2.2337,2.2337,2.2384,2.234,2.234,2.234,2.234,0,2.2283,2.2297,2.2291,2.23,2.2316,2.2309,2.2325,2.2325,2.2327,2.2336,2.2326,2.2335,2.2327,2.2335,2.2331,2.2346,2.2348,2.2346,2.2345,2.2347,2.2348,2.235,2.2347,2.2341,2.2341,2.2341,2.2341,0,2.2317,2.2314,2.233,2.233,2.2331,2.2343,2.2343,2.2352,2.235,2.2362,2.2364,2.236,2.237,2.2365,2.2374,2.2371,2.2391,2.2387,2.239,2.2389,2.2404,2.2403,2.2454,2.2461,2.2413,2.2413,2.2414,0,2.2339,2.235,2.2352,2.2358,2.2359,2.2369,2.2374,2.2368,2.2373,2.2378,2.2386,2.2395,2.2401,2.2416,2.2415,2.2422,2.2418,2.2435,2.2419,2.2421,2.2418,2.2418,2.2419,2.2439,2.2439,2.244,2.244,0,2.2377,2.2376,2.2383,2.2391,2.2397,2.2403,2.2407,2.2413,2.2407,2.2413,2.2423,2.2428,2.2439,2.2447,2.2454,2.2455,2.2446,2.2445,2.2449,2.2451,2.2453,2.2453,2.2399,2.2444,2.2444,2.2443,2.2443,2.2443,2.2406,2.2416,2.2419,2.2428,2.2431,2.2436,2.2445,2.2444,2.2452,2.246,2.2456,2.2468,2.2471,2.2479,2.2481,2.249,2.2483,2.2488,2.249,2.2491,2.2493,2.2452,2.2491,2.2491,2.2491,2.249,2.249,0,2.2445,2.2447,2.2455,2.2462,2.247,2.2462,2.2467,2.2474,2.2484,2.2488,2.2495,2.2506,2.2515,2.2514,2.2522,2.253,2.2526,2.2532,2.2531,2.2532,2.2499,2.2495,2.2535,2.2535,2.2535,2.2535,2.2535,2.2535,2.2465,2.2481,2.248,2.2498,2.2499,2.2511,2.2514,2.2519,2.2522,2.2535,2.2543,2.2542,2.2545,2.2553,2.256,2.256,2.2563,2.2571,2.2569,2.2538,2.2534,2.253,2.2526,2.2572,2.2572,2.2601,2.2601,2.2601]}]]